Location: Blythe
(33.2930°N, 82.2020°W)
Time: 21:02:37
(UTC-04:00)

HST - Visible Passes

Search period start: 25 October 2014 00:00
Search period end: 03 November 2014 23:00
Orbit: 546 x 550 km, 28.5° (Epoch: 24 October)

Date Brightness Start Highest point End Pass type
(mag) Time Alt. Az. Time Alt. Az. Time Alt. Az.
25 Oct 2.9 19:08:55 10° SSW 19:11:22 15° SSE 19:13:49 10° ESE visible
25 Oct 2.6 20:48:30 10° SW 20:50:43 25° SSW 20:50:43 25° SSW visible
26 Oct 2.2 20:41:05 10° WSW 20:43:54 32° SSW 20:43:54 32° SSW visible
27 Oct 1.8 20:33:42 10° WSW 20:37:03 38° SSW 20:37:03 38° SSW visible
28 Oct 1.5 20:26:21 10° WSW 20:30:11 42° S 20:30:11 42° S visible
29 Oct 1.4 20:19:01 10° WSW 20:23:00 43° S 20:23:18 42° SSE visible
30 Oct 1.5 20:11:42 10° WSW 20:15:40 42° S 20:16:25 38° SSE visible
31 Oct 1.7 20:04:23 10° WSW 20:08:19 39° S 20:09:34 31° SE visible
01 Nov 1.9 19:57:06 10° WSW 20:00:57 36° S 20:02:46 24° SE visible
02 Nov 2.2 18:49:49 10° WSW 18:53:34 32° SSW 18:56:00 18° SE visible
03 Nov 2.5 18:42:35 10° WSW 18:46:10 28° SSW 18:49:20 12° SE visible
